DMSP 5D-2 F13 DEB

Satellite information

Favourite Embed

Satellite Type and Status

DEBRISIN ORBIT

Key statistics

Satellite DMSP 5D-2 F13 DEB at a glance.

Uptime

11167

Days in orbit

Revolutions

≈ 14.4

Per day

Orbit

SSO

Sun Synchronous Orbit

Inclination

98.6

Latest

Satellite identification and parameters

Extended collection of information and parameters for DMSP 5D-2 F13 DEB.

Object identification

Identified? True

Debris? True

Object name: DMSP 5D-2 F13 DEB

International designator: 1995-015BL

Object number (NORAD): 40468

Object ID (CCSDS): 40468

Country: UNITED STATES OF AMERICA (US)

Current information (Y/N): Y

RCS size: SMALL

Orbital parameters

Period: 99.984 minutes

Inclination: 98.6469 deg

SMA: 7135.863 km

Apoapsis: 763.388 km

Periapsis: 752.068 km

RAAN: 323.9011 deg

Eccentricy: 0.0007932

Argument of periapsis: 240.4245 deg

Mean anomaly: 119.6153 deg

Mean motion: 14.40233894 rev/day

Mean motion (dot): 0.00006379 rev/day2

B* drag term: 0.0020278 1/REarth

Two-line elements (TLE)

Creation date: Oct. 15, 2025, 11:56 p.m.

Reference frame: TEME

Reference center: EARTH

Epoch: Oct. 15, 2025, 1:40 p.m. UTC

TLE line 0: 0 DMSP 5D-2 F13 DEB

TLE line 1: 1 40468U 95015BL 25288.56962938 .00006379 00000-0 20278-2 0 9991

TLE line 2: 2 40468 98.6469 323.9011 0007932 240.4245 119.6153 14.40233894551057

Live tracking on map

Real-time ground track for satellite DMSP 5D-2 F13 DEB.

In-orbit conjunctions

A list of the most updated potential collisions computed for object DMSP 5D-2 F13 DEB.

Target Orbit TCA Probability of collision Miss distance Type
IRIDIUM 920 LEO 2025-04-29 12:18:27 0.000118208 660.0 (m) PAYLOAD
COSMOS 2251 DEB LEO 2025-04-25 06:17:16 0.0001059839 72.0 (m) DEBRIS
COSMOS 2251 DEB LEO 2024-12-17 03:36:07 0.0001454943 181.0 (m) DEBRIS
COSMOS 1867 LEO 2024-10-28 13:06:48 0.0001100457 380.0 (m) PAYLOAD

Associated space launch

Military meteorological satellite

DMSP 5D-2 F13 DEB was lifted into orbit during the mission ‘Atlas E | DMSP-5D2 F13’, on board a Atlas E space rocket.

The launch took place on March 24, 1995, 2:05 p.m. from Space Launch Complex 3W.

For more information about the launch, click the button.

Launch to space Atlas E | DMSP-5D2 F13
Atlas E | DMSP-5D2 F13

Agency: N/A

Status: Launch Successful

Launch date: March 24, 1995, 2:05 p.m. UTC

Rocket: Atlas E

Launch pad: Space Launch Complex 3W

Location: Vandenberg SFB, CA, USA

...

Latest news about this satellite

There are no fresh news available about this satellite. Check back as we update our databases every day.


Newsletter sign-up

Weekly statistics, charts and insights to help you stay on top of the space industry.